Temp
17 17 16 16 16 16 16 16 17 18 18 19 20 20 20 19 17 16 15 15 15 14 14 14 13 13 13 13 12 12 12 12 12 11 11 11 11 11 10 10 10 10 10
17 16 16 16 16 16 16 17 18 18 19 20 20 20 20 19 18 16 15 14 14 15 14 14 13 13 13 12 12 12 12 12 11 11 11 11 11 10 10 10 10 10 10
17 16 16 16 16 16 16 16 17 19 20 19 19 19 20 19 18 16 15 14 14 14 14 14 14 13 13 12 12 12 12 11 11 11 11 11 11 10 10 10 9 9 9
17 17 16 15 16 16 16 16 16 18 19 19 19 19 18 18 18 17 15 14 14 14 14 14 13 13 13 12 12 12 12 11 11 11 11 10 10 10 10 9 9 9 9
18 17 17 16 16 16 16 16 16 17 18 18 18 18 18 18 18 18 16 15 14 14 14 14 13 13 13 12 12 12 12 11 11 11 10 10 10 10 9 9 9 9 9
17 17 16 16 16 16 16 15 16 16 17 17 17 18 17 18 18 18 17 16 16 15 14 13 13 13 12 12 12 12 12 12 11 11 11 10 10 10 9 9 9 9 8
16 17 17 16 16 16 16 16 16 16 16 17 17 17 16 17 17 18 18 18 17 16 15 14 13 13 12 12 12 12 12 12 12 11 11 10 10 9 9 9 9 9 8
13 14 16 16 16 16 16 16 15 15 15 16 16 15 14 15 17 17 18 18 18 17 16 15 14 13 13 12 12 12 12 12 12 11 11 10 10 10 9 9 9 9 8
11 13 15 16 16 16 16 15 16 15 15 15 16 15 13 14 15 16 17 17 17 17 17 15 15 14 14 14 12 12 12 12 12 12 11 10 10 10 9 9 9 9 9
10 12 14 16 16 16 15 15 15 15 15 15 14 15 16 15 14 14 16 17 17 17 17 17 16 16 15 15 14 13 12 12 12 12 11 11 10 10 10 9 9 9 9
8 10 11 13 16 15 15 15 15 15 14 14 14 14 14 14 15 14 14 15 16 17 17 17 17 16 16 15 15 14 14 13 12 12 11 11 10 10 10 9 9 9 9
6 8 10 11 13 15 15 15 15 15 15 14 15 14 14 15 14 15 15 15 15 16 17 17 17 17 16 16 16 15 15 15 13 12 12 11 11 10 10 10 9 9 9
5 6 8 9 11 13 15 15 15 14 15 14 14 14 14 14 15 15 15 15 15 16 16 16 17 17 16 16 16 16 16 15 14 13 12 11 11 11 10 10 10 10 9
5 5 6 8 10 12 14 15 15 14 15 14 14 14 14 14 14 14 15 15 15 15 17 16 16 17 17 17 16 16 16 16 15 14 13 12 11 11 11 11 10 10 10
4 5 6 6 8 10 12 15 15 15 14 15 14 14 14 14 14 14 14 14 15 15 16 17 17 16 17 17 17 17 16 16 15 15 14 13 12 11 11 11 11 11 11
4 4 5 6 7 9 11 14 14 15 15 14 14 14 14 14 14 14 14 14 14 15 15 18 17 18 17 16 17 17 17 16 16 15 14 14 13 12 12 11 11 11 11
3 4 5 6 6 8 10 12 14 15 15 15 14 14 14 14 14 14 14 14 14 14 15 16 18 17 17 16 17 17 17 17 16 15 15 14 14 14 13 12 12 12 12
3 3 4 6 6 6 8 9 13 15 15 15 14 14 14 14 14 14 14 14 14 14 14 14 16 17 17 17 17 18 17 16 16 15 15 15 15 15 14 14 13 13 12
3 4 4 5 5 6 6 8 8 13 14 15 14 14 14 14 14 14 14 14 13 13 13 14 14 16 16 17 17 16 17 16 16 15 15 15 15 15 15 15 14 14 13
2 3 4 4 4 3 4 5 7 10 13 14 14 14 14 14 13 13 13 13 13 13 13 13 14 14 16 16 17 17 16 16 16 16 16 16 16 15 15 15 15 15 14
2 2 3 3 3 2 1 3 5 7 8 12 13 14 14 14 14 14 14 14 14 14 13 14 14 14 14 14 15 16 16 16 15 16 16 17 16 16 15 15 15 15 15
2 2 2 2 2 1 1 2 4 7 9 10 11 13 14 14 14 14 14 15 14 13 13 13 13 14 14 14 14 15 15 15 15 16 16 16 16 16 16 16 17 17 17
2 2 2 2 2 1 1 1 4 4 6 8 9 10 11 13 14 14 14 14 14 13 14 13 13 13 14 14 14 14 14 14 15 16 17 16 16 16 17 17 18 18 18
1 2 2 2 2 1 0 1 2 3 4 6 7 8 8 10 11 13 14 13 13 14 14 13 13 13 14 14 13 14 14 14 14 15 15 14 16 15 16 16 17 18 18
1 1 1 1 1 1 -0 -0 1 1 1 3 4 5 5 6 6 8 12 13 12 14 13 14 14 12 12 13 12 12 13 14 14 14 14 14 15 15 16 16 17 17 17
1 1 2 2 1 0 -1 -1 -0 0 0 2 3 3 3 4 5 6 7 11 12 12 13 12 12 12 12 13 12 13 13 14 14 13 14 14 14 15 15 16 17 17 17
Height
798 802 806 810 812 814 818 822 829 832 836 839 840 842 844 843 846 847 851 856 860 863 866 868 870 872 874 876 878 880 882 884 886 889 890 892 894 895 896 898 900 902 903
797 801 803 808 812 814 817 821 826 829 834 837 839 841 843 846 847 848 852 857 861 863 866 868 870 872 874 876 878 880 883 884 887 889 891 893 894 896 897 899 901 902 904
797 799 802 806 809 814 816 819 821 828 831 834 837 840 843 847 848 848 852 857 861 864 866 868 870 872 874 877 878 881 883 885 887 889 892 893 895 897 898 899 901 903 904
794 797 800 804 807 811 812 817 818 825 827 831 836 839 843 847 849 850 853 856 860 863 866 868 870 872 874 876 878 881 882 885 887 889 891 893 895 896 898 899 901 903 904
793 795 798 800 804 808 811 815 818 822 824 830 835 839 843 846 849 851 852 855 858 862 865 867 870 872 874 875 878 880 882 884 887 889 890 892 894 897 898 900 902 903 904
793 794 795 799 802 806 809 812 810 817 823 829 833 838 842 845 848 850 851 854 857 859 862 865 868 871 872 875 877 879 882 884 886 888 890 891 893 895 898 899 901 902 903
792 792 794 796 799 802 806 809 813 816 820 828 831 837 841 844 847 849 850 853 855 857 859 861 864 868 870 873 875 877 880 882 885 887 888 889 891 893 895 897 899 901 902
791 790 792 793 796 800 803 807 808 810 820 824 829 833 841 845 846 847 850 852 854 856 856 858 861 864 865 868 871 874 877 880 882 884 886 887 889 891 893 895 897 899 901
791 789 789 791 793 796 799 804 806 811 815 820 822 827 837 840 843 846 847 849 851 854 855 856 858 860 861 863 867 870 873 876 879 882 883 885 886 888 891 893 895 897 898
791 789 787 788 791 794 796 800 803 807 811 815 820 822 825 828 836 844 845 846 848 849 852 853 854 857 857 859 861 864 867 872 875 877 880 882 883 885 887 889 891 893 895
793 789 786 785 787 791 793 795 798 801 804 808 813 817 822 826 829 834 839 841 845 845 847 849 851 852 855 855 856 858 862 865 869 873 876 878 880 881 883 885 888 890 892
792 789 787 785 784 788 790 791 795 798 800 803 809 814 817 820 824 827 830 834 836 839 841 844 846 847 849 851 854 853 857 860 863 867 871 874 876 879 880 882 884 886 888
793 790 788 785 785 785 787 788 791 792 796 801 803 805 811 815 817 821 824 827 831 834 836 837 839 842 843 845 847 850 851 854 858 861 865 868 871 874 876 878 880 882 885
797 793 790 785 783 783 783 785 786 789 793 795 799 801 805 808 810 812 815 819 827 829 830 828 832 834 837 838 840 844 847 849 852 856 859 863 866 869 872 874 876 878 881
798 795 790 786 782 781 779 780 782 784 788 791 794 797 797 802 806 807 810 813 817 821 822 822 824 825 828 832 834 836 839 843 846 850 852 856 860 864 867 870 872 875 876
797 793 790 786 782 778 777 777 779 780 784 785 788 792 794 797 800 801 803 808 811 814 816 816 818 819 820 824 829 831 832 837 840 843 846 850 853 856 860 863 866 869 871
796 791 787 785 782 776 776 774 774 777 779 780 784 787 790 792 793 796 797 801 805 807 812 814 815 817 817 820 824 826 828 830 834 837 839 843 846 849 852 855 858 861 864
795 791 787 785 781 778 774 770 769 769 774 773 777 779 782 787 789 790 794 792 797 802 808 810 811 813 815 817 819 820 823 826 828 831 833 836 838 842 846 848 851 853 857
795 790 786 783 781 776 772 770 770 767 768 768 771 774 777 779 783 784 789 792 794 795 801 805 807 810 811 815 816 818 820 822 824 825 828 829 831 835 839 841 844 846 849
796 791 787 783 779 777 774 769 765 762 764 765 767 769 772 772 775 778 782 785 788 792 796 799 802 804 808 809 813 816 816 817 819 821 822 823 825 828 831 833 836 839 842
797 793 788 785 782 779 776 771 767 764 763 761 763 766 767 769 771 774 776 779 782 786 785 788 793 798 800 804 806 808 810 813 812 817 817 816 817 819 821 824 827 830 833
797 794 790 787 784 781 777 771 766 761 759 760 761 761 762 765 765 767 769 773 775 777 780 784 787 788 789 794 799 802 805 808 809 809 811 810 810 811 812 813 815 818 822
798 795 792 789 786 783 776 768 762 760 760 758 758 758 758 761 763 764 765 765 768 768 770 773 775 777 779 783 789 793 795 797 800 801 804 802 803 802 803 804 806 809 813
800 796 793 791 788 786 779 771 764 761 760 757 756 756 756 756 758 757 758 757 758 758 760 761 763 766 769 775 778 782 787 790 789 794 796 793 796 796 797 798 799 802 805
802 798 796 793 790 788 784 778 769 765 761 757 756 754 754 752 753 751 751 752 752 750 754 755 756 758 762 764 769 772 773 780 780 781 784 786 788 791 792 792 792 794 797
806 801 799 796 794 791 786 781 775 770 764 761 758 757 754 753 750 749 747 747 748 744 749 750 748 749 754 756 758 758 762 765 769 772 772 777 780 784 785 786 786 788 789
Wind_Speed
25 26 30 30 30 30 28 29 27 25 23 21 18 13 10 9 15 15 21 20 17 16 17 17 18 18 18 17 18 18 17 17 17 16 16 17 15 15 15 14 14 14 13
23 25 27 30 27 31 26 29 27 28 22 20 16 12 13 12 16 15 18 19 17 17 17 17 17 17 18 17 18 18 17 17 17 16 16 15 15 14 14 14 13 13 12
19 22 23 28 26 27 29 28 25 26 25 20 17 15 14 8 14 18 15 21 18 17 17 17 17 17 17 17 18 17 18 17 16 16 16 15 15 14 14 14 13 12 11
19 20 20 25 25 26 27 32 22 26 25 23 18 16 15 11 12 15 20 19 20 19 17 17 17 18 18 18 18 18 17 17 17 17 16 16 15 15 14 14 13 12 11
12 24 20 23 22 26 29 26 26 24 25 22 20 20 17 16 15 13 20 19 20 21 20 18 18 18 18 18 18 17 17 18 17 17 17 16 16 15 14 13 12 12 11
10 23 20 17 20 25 28 29 24 27 23 23 20 18 17 16 18 15 22 22 20 24 22 24 20 19 20 19 19 19 18 18 18 18 18 17 16 16 15 14 13 12 11
7 18 21 18 21 26 28 28 22 23 25 22 20 15 10 15 17 12 16 18 21 23 24 24 25 23 22 21 21 20 20 20 19 19 19 19 18 17 17 15 15 14 12
11 12 23 22 25 26 26 27 22 27 22 27 11 15 3 3 13 13 15 17 20 21 23 25 20 23 26 26 25 24 22 22 21 21 21 20 20 19 18 17 16 15 14
17 14 7 22 26 25 28 32 33 28 21 27 25 10 3 3 6 12 17 18 19 22 20 23 19 24 28 23 28 28 27 26 24 23 23 22 22 21 19 18 18 17 16
21 17 17 26 24 29 29 32 27 31 29 24 26 21 12 14 3 3 13 20 18 25 24 25 26 24 28 26 22 28 32 30 28 27 26 24 24 23 22 21 20 19 18
23 19 17 11 26 28 31 33 29 29 30 23 25 21 13 15 14 4 3 13 18 25 25 25 27 28 27 25 26 28 25 33 33 30 29 28 25 25 24 22 21 20 19
27 24 21 14 5 25 31 34 32 33 27 29 31 24 24 15 15 11 4 14 19 22 32 27 25 29 31 31 28 30 30 26 33 35 32 31 29 27 25 24 23 22 21
28 30 26 20 14 7 25 30 31 29 36 29 32 35 32 31 24 25 17 9 9 20 20 31 32 29 30 31 33 31 30 30 29 32 36 34 32 30 28 27 25 23 22
25 26 28 21 18 11 11 26 29 31 31 30 32 34 29 32 32 32 28 19 5 15 19 18 32 38 35 29 34 33 33 31 31 30 34 37 36 33 31 28 27 26 24
24 23 23 24 19 16 11 24 27 30 31 34 32 31 33 27 27 30 32 29 19 6 11 22 15 37 39 39 28 34 35 35 33 32 33 37 38 36 34 31 30 27 27
24 24 21 22 21 17 13 11 23 27 29 31 30 28 29 29 32 36 34 32 28 13 3 16 29 17 35 37 40 32 35 34 34 33 34 36 39 39 38 36 34 31 30
24 24 22 21 21 17 16 12 20 27 27 25 28 29 29 30 32 31 36 36 33 19 11 10 12 13 23 30 29 35 35 35 33 31 32 36 38 39 40 39 38 36 34
23 23 21 18 18 18 15 13 10 25 28 26 28 29 29 31 22 21 19 32 36 31 18 14 13 22 12 22 26 30 34 33 34 32 35 35 38 40 39 39 39 39 37
24 22 20 19 17 14 14 12 13 7 21 25 27 27 29 27 22 21 24 22 24 27 27 21 15 12 18 17 22 21 29 27 27 28 27 33 38 40 40 40 39 39 39
23 22 19 17 11 16 19 17 16 10 11 18 25 26 32 33 35 33 31 27 29 26 28 26 24 21 19 24 24 23 23 29 30 23 29 32 32 38 42 43 42 40 40
22 20 18 17 16 22 27 23 19 14 11 11 13 24 28 31 33 34 29 28 27 26 21 33 23 18 18 18 20 26 24 20 20 26 28 32 36 36 41 44 45 44 43
22 19 19 18 19 25 30 27 18 15 13 11 9 9 23 20 26 31 30 28 31 34 32 30 25 20 30 29 27 26 23 17 14 25 31 30 33 38 42 43 44 45 44
22 16 20 20 16 29 33 34 19 14 11 9 12 12 17 14 21 26 30 33 38 41 40 38 31 33 33 34 28 27 24 21 24 28 29 29 30 37 38 44 43 42 42
21 21 17 19 18 26 33 36 25 20 16 9 7 8 10 13 16 22 26 24 27 30 42 52 40 40 39 35 32 32 32 30 28 33 31 18 28 31 35 37 36 34 37
19 21 21 23 27 26 34 37 31 23 24 19 14 12 13 14 17 10 16 20 19 24 30 36 40 45 41 43 38 35 35 30 28 31 35 27 25 27 33 34 36 31 30
19 13 19 20 23 25 33 37 37 27 26 21 19 18 19 21 21 18 13 14 20 23 24 31 30 31 41 48 46 45 35 28 26 15 30 26 31 25 14 31 35 33 31
Wind_Direction
196 199 197 196 198 194 195 184 187 187 194 191 194 208 217 113 138 134 143 148 160 164 163 161 158 156 156 155 155 154 149 151 148 147 145 144 142 138 135 133 129 124 119
205 204 203 199 204 199 203 193 190 190 198 188 186 183 179 127 144 143 148 157 165 168 168 169 165 164 164 161 160 159 158 157 156 155 152 152 151 148 145 142 136 133 130
212 211 211 205 203 205 205 211 200 196 189 183 180 172 180 160 140 150 150 162 169 174 176 174 175 174 173 168 168 165 168 164 163 162 159 158 159 160 154 151 148 144 143
214 216 217 212 215 209 202 222 215 197 182 186 181 177 172 165 156 148 155 166 175 179 183 184 183 182 181 179 176 174 173 173 172 169 169 168 169 170 166 162 158 156 155
220 211 222 222 225 212 212 220 219 190 172 174 178 173 178 175 177 167 173 174 178 184 187 188 187 191 189 185 184 183 181 180 179 179 179 177 177 176 175 171 170 170 168
231 211 220 224 222 213 218 218 209 185 176 175 170 178 179 186 183 193 173 177 182 186 189 190 191 195 195 193 189 188 189 187 188 186 186 185 184 186 185 184 183 183 182
277 224 221 220 215 208 212 208 198 174 174 179 164 153 160 186 192 201 180 186 187 194 190 196 194 197 200 201 199 196 194 194 196 194 193 193 192 192 192 192 192 195 195
360 6 222 220 218 215 205 207 192 171 187 195 176 134 130 177 200 192 192 195 192 190 199 198 200 198 207 206 206 200 200 200 201 201 200 198 198 197 199 198 200 201 205
342 336 275 223 220 218 205 207 206 192 185 197 192 160 147 179 145 207 195 197 205 197 200 196 204 203 212 213 210 206 203 206 205 206 206 204 203 202 203 204 206 207 210
350 353 359 226 229 222 215 209 205 201 188 190 188 189 177 153 169 161 217 214 213 198 210 211 206 207 211 214 223 215 207 206 210 210 210 209 207 207 206 208 210 211 214
350 352 1 16 220 219 220 218 209 208 203 195 195 198 190 179 176 148 178 202 222 212 216 217 211 209 212 215 226 223 218 210 209 214 215 215 212 212 210 211 213 217 218
346 352 349 354 1 226 220 224 227 214 208 199 210 211 208 192 192 189 175 190 205 218 219 220 217 217 217 219 221 226 222 220 216 212 218 220 220 218 215 215 215 218 221
344 346 342 341 340 337 234 223 222 217 213 215 212 208 212 216 214 201 198 173 202 215 213 217 222 220 217 216 218 221 228 223 223 221 218 220 222 225 224 220 219 220 223
336 337 336 329 326 314 251 231 223 220 218 210 213 212 216 217 212 203 202 195 206 214 211 206 219 223 224 220 221 219 226 229 226 228 226 222 223 226 228 228 227 225 225
332 332 333 331 324 318 331 232 221 222 224 223 223 222 217 216 219 205 203 199 198 201 207 209 203 220 223 222 220 219 222 226 227 231 229 226 224 226 229 232 233 232 232
334 332 335 330 325 317 322 265 235 226 228 226 220 219 216 231 226 215 206 204 201 217 188 216 214 226 223 222 226 227 226 227 229 231 231 229 227 226 228 231 234 235 236
337 337 335 332 327 325 315 333 238 235 226 220 221 224 228 235 221 218 210 209 215 224 227 244 230 233 220 215 220 223 222 225 228 231 232 231 229 229 229 230 233 235 237
345 338 337 335 336 327 328 325 303 222 223 221 225 217 227 221 214 216 228 211 207 216 232 227 253 240 259 223 229 218 217 223 230 235 232 232 231 232 231 232 233 236 237
348 346 345 343 343 345 340 325 319 258 233 239 231 224 215 210 220 224 236 229 219 219 231 239 239 247 236 251 234 228 216 214 227 237 238 237 234 233 233 234 235 236 237
351 355 356 359 13 9 358 346 333 322 258 239 246 242 222 221 225 228 228 230 222 217 223 227 239 242 241 235 236 247 224 223 227 227 236 241 239 235 236 237 237 238 239
354 7 11 15 21 12 7 355 334 317 306 255 255 236 233 234 230 229 220 222 231 230 227 219 219 220 228 229 228 234 235 229 237 235 238 239 235 233 235 236 238 239 241
358 16 24 27 26 17 9 8 346 319 307 304 287 272 242 249 238 239 221 236 248 231 232 231 227 223 230 232 236 231 231 227 235 240 230 242 238 235 237 235 236 237 238
359 17 28 26 27 15 11 10 13 6 338 320 316 304 294 267 258 249 250 253 254 240 241 235 229 228 231 225 220 225 223 226 236 249 244 232 232 239 242 241 239 239 241
7 10 17 21 23 22 16 15 19 13 360 342 337 353 333 319 299 257 252 254 251 256 257 240 225 235 229 228 226 235 243 252 261 252 236 229 236 236 244 247 247 245 243
11 22 22 24 26 23 25 21 21 10 6 14 12 1 9 340 331 313 236 252 254 260 259 243 248 233 230 239 247 244 239 238 242 240 229 231 239 241 238 240 245 245 246
5 15 30 29 23 21 13 19 22 14 7 8 15 15 4 353 341 323 312 246 255 254 260 257 251 253 255 257 258 233 224 219 223 226 227 221 233 237 239 242 233 231 240